TimeEST,TemperatureF,Dew PointF,Humidity,Sea Level PressureIn,VisibilityMPH,Wind Direction,Wind SpeedMPH,Gust SpeedMPH,PrecipitationIn,Events,Conditions,WindDirDegrees,DateUTC
12:51 AM,46.9,33.1,59,30.35,10.0,NW,5.8,-,N/A,,Clear,310,2014-01-01 05:51:00
1:51 AM,46.9,32.0,56,30.36,10.0,WNW,5.8,-,N/A,,Clear,300,2014-01-01 06:51:00
2:51 AM,46.9,32.0,56,30.36,10.0,Variable,4.6,-,N/A,,Clear,0,2014-01-01 07:51:00
3:51 AM,46.9,32.0,56,30.36,10.0,Variable,4.6,-,N/A,,Clear,0,2014-01-01 08:51:00
4:51 AM,45.0,32.0,60,30.38,10.0,Calm,Calm,-,N/A,,Clear,0,2014-01-01 09:51:00
5:51 AM,43.0,33.1,68,30.39,10.0,NNE,3.5,-,N/A,,Clear,20,2014-01-01 10:51:00
6:51 AM,44.1,34.0,68,30.40,10.0,NNE,4.6,-,N/A,,Clear,30,2014-01-01 11:51:00
7:51 AM,45.0,35.1,68,30.41,10.0,NE,4.6,-,N/A,,Clear,40,2014-01-01 12:51:00
8:51 AM,46.9,37.9,71,30.42,10.0,NE,3.5,-,N/A,,Clear,50,2014-01-01 13:51:00
9:51 AM,50.0,39.0,66,30.44,10.0,Calm,Calm,-,N/A,,Clear,0,2014-01-01 14:51:00
10:51 AM,51.1,37.9,61,30.42,10.0,NNE,3.5,-,N/A,,Clear,30,2014-01-01 15:51:00
11:51 AM,51.1,35.1,54,30.39,10.0,North,4.6,-,N/A,,Clear,10,2014-01-01 16:51:00
12:51 PM,53.1,36.0,52,30.35,10.0,Variable,3.5,-,N/A,,Clear,0,2014-01-01 17:51:00
1:51 PM,55.0,37.0,51,30.32,10.0,NE,4.6,-,N/A,,Clear,50,2014-01-01 18:51:00
2:51 PM,53.1,39.0,59,30.30,10.0,NNE,4.6,-,N/A,,Partly Cloudy,20,2014-01-01 19:51:00
3:51 PM,52.0,39.9,63,30.29,10.0,NNE,6.9,-,N/A,,Partly Cloudy,30,2014-01-01 20:51:00
4:51 PM,51.1,43.0,74,30.27,10.0,NE,6.9,-,N/A,,Partly Cloudy,40,2014-01-01 21:51:00
5:51 PM,52.0,45.0,77,30.25,10.0,NE,5.8,-,0.00,,Overcast,40,2014-01-01 22:51:00
6:51 PM,52.0,46.0,80,30.26,10.0,North,4.6,-,0.00,,Overcast,360,2014-01-01 23:51:00
7:51 PM,51.1,48.0,89,30.24,10.0,East,3.5,-,0.00,Rain,Light Rain,90,2014-01-02 00:51:00
8:51 PM,57.0,55.0,93,30.23,10.0,SE,5.8,-,0.01,Rain,Light Rain,140,2014-01-02 01:51:00
9:01 PM,57.9,55.9,93,30.23,10.0,South,9.2,-,0.00,Rain,Light Rain,180,2014-01-02 02:01:00
9:34 PM,59.0,55.0,87,30.22,10.0,SSW,9.2,-,0.01,Rain,Light Rain,200,2014-01-02 02:34:00
9:51 PM,59.0,55.0,87,30.21,10.0,SSW,8.1,-,0.01,Rain,Light Rain,200,2014-01-02 02:51:00
10:51 PM,59.0,53.1,81,30.18,10.0,South,6.9,-,0.01,Rain,Light Rain,190,2014-01-02 03:51:00
11:51 PM,59.0,55.0,87,30.15,10.0,SSW,9.2,-,0.02,Rain,Light Rain,210,2014-01-02 04:51:00